• In Portugal
  • List of Countries
  • For 7 days
  • Water Temperature
  • Satellite Maps
  • Weather Map
  • Weather Widgets
  • user-avatar
    Login

    Hourly Weather Debalcevo

    Today, 20 October, Saturday

    Time Temperature Precipitation Wind Pressure Humidity
    00:00 +13°C° 0 mm 2 mps 734 mmHg 73%
    01:00 +13°C° 0 mm 2 mps 734 mmHg 76%
    02:00 +12°C° 0 mm 2 mps 734 mmHg 79%
    03:00 +12°C° 0 mm 1 mps 733 mmHg 86%
    04:00 +12°C° 0 mm 1 mps 733 mmHg 87%
    05:00 +11°C° 0 mm 1 mps 733 mmHg 88%
    06:00 +11°C° 0 mm 1 mps 733 mmHg 88%
    07:00 +12°C° 0 mm 1 mps 734 mmHg 84%
    08:00 +13°C° 0 mm 1 mps 734 mmHg 80%
    09:00 +14°C° 0 mm 1 mps 734 mmHg 76%
    10:00 +15°C° 0 mm 1 mps 734 mmHg 68%
    11:00 +18°C° 0 mm 1 mps 734 mmHg 61%
    12:00 +19°C° 0 mm 2 mps 734 mmHg 54%
    13:00 +20°C° 0 mm 1 mps 734 mmHg 50%
    14:00 +21°C° 0 mm 1 mps 734 mmHg 47%
    15:00 +22°C° 0 mm 1 mps 734 mmHg 44%
    16:00 +20°C° 0 mm 1 mps 734 mmHg 47%
    17:00 +19°C° 0 mm 1 mps 734 mmHg 51%
    18:00 +18°C° 0 mm 1 mps 733 mmHg 54%
    19:00 +18°C° 0 mm 1 mps 733 mmHg 57%
    20:00 +16°C° 0 mm 1 mps 733 mmHg 60%
    21:00 +15°C° 0 mm 1 mps 733 mmHg 63%
    22:00 +15°C° 0 mm 1 mps 733 mmHg 65%
    23:00 +14°C° 0 mm 1 mps 733 mmHg 67%

    Tomorrow, 21 October, Sunday

    Time Temperature Precipitation Wind Pressure Humidity
    00:00 +13°C° 0 mm 0 mps 733 mmHg 70%
    01:00 +13°C° 0 mm 0 mps 733 mmHg 71%
    02:00 +12°C° 0 mm 0 mps 733 mmHg 73%
    03:00 +12°C° 0 mm 0 mps 733 mmHg 75%
    04:00 +13°C° 0 mm 1 mps 733 mmHg 77%
    05:00 +12°C° 0 mm 1 mps 733 mmHg 78%
    06:00 +12°C° 0 mm 1 mps 733 mmHg 80%
    07:00 +13°C° 0 mm 1 mps 734 mmHg 76%
    08:00 +14°C° 0 mm 1 mps 734 mmHg 72%
    09:00 +15°C° 0 mm 1 mps 734 mmHg 69%
    10:00 +16°C° 0 mm 1 mps 735 mmHg 62%
    11:00 +19°C° 0 mm 1 mps 735 mmHg 56%
    12:00 +19°C° 0 mm 2 mps 735 mmHg 50%
    13:00 +21°C° 0 mm 1 mps 735 mmHg 48%
    14:00 +21°C° 0 mm 1 mps 735 mmHg 46%
    15:00 +22°C° 0 mm 1 mps 735 mmHg 43%
    16:00 +20°C° 0 mm 2 mps 735 mmHg 47%
    17:00 +19°C° 0 mm 2 mps 735 mmHg 51%
    18:00 +18°C° 0 mm 2 mps 735 mmHg 55%
    19:00 +17°C° 0.2 mm 2 mps 735 mmHg 59%
    20:00 +17°C° 0.2 mm 2 mps 735 mmHg 64%
    21:00 +16°C° 0.2 mm 2 mps 735 mmHg 68%
    22:00 +16°C° 1.4 mm 2 mps 735 mmHg 73%
    23:00 +16°C° 1.4 mm 3 mps 735 mmHg 79%

    Day after tomorrow, 22 October, Monday

    Time Temperature Precipitation Wind Pressure Humidity
    00:00 +14°C° 1.4 mm 3 mps 735 mmHg 84%
    01:00 +14°C° 4.4 mm 3 mps 735 mmHg 86%
    02:00 +14°C° 4.4 mm 4 mps 735 mmHg 88%
    03:00 +14°C° 4.4 mm 4 mps 735 mmHg 90%
    04:00 +14°C° 1.3 mm 4 mps 735 mmHg 89%
    05:00 +14°C° 1.3 mm 4 mps 735 mmHg 88%
    06:00 +14°C° 1.3 mm 5 mps 735 mmHg 87%
    07:00 +14°C° 0.4 mm 5 mps 735 mmHg 86%
    08:00 +13°C° 0.4 mm 5 mps 735 mmHg 86%
    09:00 +13°C° 0.4 mm 5 mps 735 mmHg 85%
    10:00 +14°C° 1.1 mm 5 mps 735 mmHg 84%
    11:00 +14°C° 1.1 mm 5 mps 735 mmHg 82%
    12:00 +14°C° 1.1 mm 5 mps 735 mmHg 80%
    13:00 +14°C° 0.6 mm 5 mps 735 mmHg 80%
    14:00 +14°C° 0.6 mm 4 mps 735 mmHg 79%
    15:00 +14°C° 0.6 mm 4 mps 735 mmHg 79%
    16:00 +14°C° 0.2 mm 4 mps 735 mmHg 81%
    17:00 +14°C° 0.2 mm 3 mps 735 mmHg 84%
    18:00 +14°C° 0.2 mm 3 mps 735 mmHg 87%
    19:00 +13°C° 0 mm 3 mps 735 mmHg 89%
    20:00 +13°C° 0 mm 3 mps 735 mmHg 91%
    21:00 +13°C° 0 mm 3 mps 735 mmHg 93%
    22:00 +13°C° 0 mm 2 mps 735 mmHg 94%
    23:00 +13°C° 0 mm 2 mps 735 mmHg 94%

    23 October, Tuesday

    Time Temperature Precipitation Wind Pressure Humidity
    00:00 +13°C° 0 mm 2 mps 735 mmHg 95%
    01:00 +12°C° 0 mm 2 mps 735 mmHg 95%
    02:00 +12°C° 0 mm 2 mps 735 mmHg 95%
    03:00 +12°C° 0 mm 2 mps 735 mmHg 94%
    04:00 +12°C° 0 mm 2 mps 734 mmHg 94%
    05:00 +11°C° 0 mm 1 mps 734 mmHg 94%
    06:00 +11°C° 0 mm 1 mps 734 mmHg 94%
    07:00 +12°C° 0 mm 1 mps 734 mmHg 90%
    08:00 +12°C° 0 mm 1 mps 734 mmHg 87%
    09:00 +13°C° 0 mm 1 mps 734 mmHg 84%
    10:00 +14°C° 0 mm 2 mps 734 mmHg 77%
    11:00 +15°C° 0 mm 2 mps 734 mmHg 71%
    12:00 +16°C° 0 mm 3 mps 734 mmHg 65%
    13:00 +16°C° 0.1 mm 3 mps 734 mmHg 65%
    14:00 +16°C° 0.1 mm 3 mps 734 mmHg 64%
    15:00 +16°C° 0.1 mm 3 mps 733 mmHg 64%
    16:00 +16°C° 0.1 mm 3 mps 733 mmHg 67%
    17:00 +15°C° 0.1 mm 2 mps 733 mmHg 70%
    18:00 +14°C° 0.1 mm 2 mps 733 mmHg 73%
    19:00 +14°C° 0 mm 2 mps 733 mmHg 74%
    20:00 +13°C° 0 mm 2 mps 733 mmHg 75%
    21:00 +13°C° 0 mm 2 mps 733 mmHg 76%
    22:00 +12°C° 0 mm 2 mps 732 mmHg 77%
    23:00 +12°C° 0 mm 2 mps 732 mmHg 77%

    24 October, Wednesday

    Time Temperature Precipitation Wind Pressure Humidity
    00:00 +10°C° 0 mm 2 mps 732 mmHg 78%
    01:00 +10°C° 0 mm 2 mps 731 mmHg 78%
    02:00 +9°C° 0 mm 2 mps 731 mmHg 78%
    03:00 +9°C° 0 mm 2 mps 731 mmHg 79%
    04:00 +9°C° 0 mm 2 mps 730 mmHg 78%
    05:00 +8°C° 0 mm 2 mps 730 mmHg 77%
    06:00 +8°C° 0 mm 2 mps 730 mmHg 76%
    07:00 +9°C° 0 mm 2 mps 729 mmHg 71%
    08:00 +9°C° 0 mm 3 mps 729 mmHg 65%
    09:00 +10°C° 0 mm 3 mps 729 mmHg 60%
    10:00 +11°C° 0 mm 4 mps 728 mmHg 58%
    11:00 +13°C° 0 mm 5 mps 728 mmHg 55%
    12:00 +14°C° 0 mm 5 mps 727 mmHg 53%
    13:00 +14°C° 0 mm 6 mps 726 mmHg 58%
    14:00 +14°C° 0 mm 6 mps 726 mmHg 62%
    15:00 +14°C° 0 mm 6 mps 725 mmHg 67%
    16:00 +14°C° 0.4 mm 6 mps 724 mmHg 73%
    17:00 +13°C° 0.4 mm 6 mps 723 mmHg 78%
    18:00 +13°C° 0.4 mm 5 mps 723 mmHg 84%
    19:00 +13°C° 1.5 mm 5 mps 722 mmHg 86%
    20:00 +13°C° 1.5 mm 5 mps 721 mmHg 88%
    21:00 +13°C° 1.5 mm 4 mps 721 mmHg 90%
    22:00 +13°C° 2.1 mm 4 mps 720 mmHg 90%
    23:00 +13°C° 2.1 mm 4 mps 720 mmHg 90%

    25 October, Thursday

    Time Temperature Precipitation Wind Pressure Humidity
    00:00 +13°C° 2.1 mm 3 mps 719 mmHg 90%
    01:00 +12°C° 1.5 mm 3 mps 718 mmHg 90%
    02:00 +12°C° 1.5 mm 3 mps 718 mmHg 90%
    03:00 +12°C° 1.5 mm 4 mps 717 mmHg 89%
    04:00 +11°C° 0.8 mm 3 mps 717 mmHg 88%
    05:00 +11°C° 0.8 mm 3 mps 717 mmHg 86%
    06:00 +10°C° 0.8 mm 3 mps 717 mmHg 85%
    07:00 +10°C° 0.1 mm 3 mps 718 mmHg 83%
    08:00 +10°C° 0.1 mm 3 mps 718 mmHg 82%
    09:00 +10°C° 0.1 mm 3 mps 718 mmHg 81%
    10:00 +10°C° 1.1 mm 3 mps 718 mmHg 82%
    11:00 +8°C° 1.1 mm 4 mps 718 mmHg 82%
    12:00 +8°C° 1.1 mm 4 mps 719 mmHg 83%
    13:00 +8°C° 1.1 mm 4 mps 719 mmHg 80%
    14:00 +7°C° 1.1 mm 4 mps 719 mmHg 78%
    15:00 +7°C° 1.1 mm 4 mps 720 mmHg 75%
    16:00 +7°C° 0.1 mm 4 mps 720 mmHg 72%
    17:00 +7°C° 0.1 mm 4 mps 721 mmHg 70%
    18:00 +6°C° 0.1 mm 4 mps 721 mmHg 67%
    19:00 +6°C° 0 mm 4 mps 722 mmHg 67%
    20:00 +6°C° 0 mm 4 mps 723 mmHg 67%
    21:00 +5°C° 0 mm 4 mps 723 mmHg 67%
    22:00 +5°C° 0 mm 4 mps 723 mmHg 69%
    23:00 +4°C° 0 mm 4 mps 724 mmHg 70%
    Show more